Helicity
50 48 49 48 52 48 35 25 18 16 17 15 12 12 18 26 57 10 7 37 46 66 45 46 43 26 28 26 21 22 42 54 63 69 75 71 68 55 24 39 30 28 31 86 104
77 77 73 69 62 59 46 34 25 16 12 7 10 21 33 29 35 12 16 31 37 34 35 28 28 43 35 30 26 26 42 66 57 57 57 72 64 54 54 57 52 37 37 50 50
72 74 70 67 67 60 52 37 25 15 9 5 11 24 36 31 40 19 -1 31 40 42 29 22 21 26 31 34 31 31 37 79 77 69 60 63 63 80 65 50 56 58 65 64 52
67 68 67 69 68 60 49 38 29 19 11 12 17 18 18 30 5 4 8 34 55 32 32 20 28 27 29 39 47 56 51 53 75 75 75 70 74 81 87 57 89 69 67 104 73
65 62 63 63 60 52 42 38 34 26 15 8 12 13 2 -17 -13 3 17 18 5 -4 -3 3 19 26 34 51 49 50 61 61 64 72 69 73 77 84 81 86 109 104 96 112 99
69 63 56 52 50 45 39 31 24 23 18 20 10 -19 -30 -25 -13 3 4 -9 3 1 11 9 29 38 52 48 26 65 55 60 73 68 87 83 58 120 85 90 126 110 107 118 111
64 57 54 44 41 38 31 29 26 26 17 16 2 4 -11 2 -7 -2 -2 1 -3 1 17 14 11 19 34 54 58 46 41 81 75 86 91 77 55 83 69 136 126 112 104 113 118
65 55 51 44 37 28 23 20 21 17 17 18 18 6 4 15 -9 3 1 10 18 20 31 25 24 44 27 54 51 27 35 17 175 108 117 77 17 141 160 138 146 132 114 110 120
61 50 42 34 29 20 19 19 16 17 20 -1 4 -6 18 27 2 5 4 10 19 35 33 35 31 36 37 10 12 25 29 41 51 138 98 94 69 165 178 136 127 161 132 115 129
62 44 43 33 25 14 15 17 15 -6 11 17 11 5 27 21 11 8 11 11 22 28 37 31 31 21 29 23 61 44 36 36 32 104 109 101 127 51 117 185 123 144 150 122 134
87 58 37 29 17 9 -5 6 7 14 31 37 47 35 33 20 21 23 18 19 27 24 29 47 39 69 68 45 43 38 33 24 29 116 85 47 45 17 26 120 122 107 103 127 136
91 63 43 24 -9 -10 -2 24 39 42 45 63 60 44 31 26 25 40 13 26 34 45 43 48 66 89 72 53 43 42 38 44 64 82 58 32 33 5 8 -4 92 98 93 115 162
95 63 48 26 -16 4 53 54 34 32 47 78 79 60 41 20 38 34 31 39 53 55 59 60 135 95 71 68 59 49 69 68 80 43 40 36 36 68 62 35 72 61 91 119 184
98 54 39 13 8 7 28 13 10 14 44 79 49 34 21 26 42 43 45 46 56 61 62 64 113 87 76 71 106 71 132 79 61 69 98 112 94 66 103 38 50 46 125 148 200
95 46 20 16 9 13 9 -2 5 14 53 58 47 19 24 35 50 62 52 52 64 77 78 115 101 90 87 112 128 125 96 73 81 80 90 115 102 94 124 61 13 66 124 178 196
86 32 2 -12 11 8 -5 1 14 36 59 75 49 64 49 45 70 72 67 67 75 79 82 109 122 109 131 120 113 75 62 48 86 84 122 188 153 106 126 161 74 83 125 168 203
65 10 11 -5 25 2 -0 10 25 61 81 88 72 47 56 87 83 91 91 79 89 85 75 99 111 138 113 115 116 59 81 118 144 135 107 201 200 121 18 159 55 73 61 168 186
47 -16 26 12 8 1 10 23 43 96 94 88 72 63 78 100 90 95 92 93 89 105 132 132 134 118 128 136 144 138 144 155 201 144 117 220 198 173 139 135 137 93 84 145 151
9 7 19 35 19 8 16 45 94 104 111 83 59 69 90 96 93 91 85 107 146 82 121 134 135 186 183 161 127 170 156 178 160 87 186 163 167 113 197 180 133 66 98 99 143
8 7 51 50 37 24 38 78 105 118 99 90 94 131 127 135 83 94 103 150 136 131 133 196 135 191 217 173 160 174 225 177 179 251 221 228 169 149 278 227 132 79 66 51 156
7 20 65 46 33 34 69 113 102 99 89 100 127 130 100 126 120 124 149 165 156 144 150 159 169 213 223 185 199 236 283 269 325 339 339 230 208 256 212 113 130 88 91 74 137
41 62 78 36 57 89 92 130 141 115 112 129 143 141 129 144 133 136 143 178 186 157 184 192 239 236 132 353 330 315 261 256 409 293 243 223 308 95 108 163 70 82 96 74 111
69 63 76 102 97 89 141 139 147 140 148 168 167 127 148 154 135 79 153 214 176 178 235 213 231 228 182 258 199 228 225 252 212 226 293 302 320 173 105 55 81 115 81 90 128
44 66 53 70 127 145 161 134 134 152 150 133 169 161 152 135 115 212 260 205 191 201 264 261 305 264 275 164 131 195 212 212 248 375 273 312 146 85 50 60 118 121 140 114 172
51 103 122 115 90 145 134 169 130 122 147 156 164 108 98 206 199 163 154 191 190 251 288 297 309 208 182 104 91 115 136 164 282 289 329 173 113 67 103 168 183 154 136 99 276
127 100 82 128 130 120 119 111 110 105 122 121 119 108 199 158 144 184 233 240 268 311 299 392 351 319 243 112 86 109 98 92 102 145 191 161 98 194 282 287 233 197 152 176 278
113 105 131 129 118 115 111 93 142 168 119 148 181 170 141 113 163 140 147 155 210 238 279 338 331 226 179 99 169 221 97 68 57 178 227 168 281 359 323 239 219 189 155 210 254
Wind_Speed
23 23 24 25 25 26 26 27 29 29 30 30 28 25 26 26 21 15 15 17 19 23 21 23 27 30 30 32 29 27 32 34 33 31 32 28 24 25 21 17 19 20 17 21 24
21 21 22 22 23 25 24 25 26 28 28 28 27 24 22 23 24 14 16 23 22 21 21 24 30 30 31 29 27 27 31 34 30 28 27 26 22 20 20 19 16 16 18 19 19
17 18 20 21 23 24 24 24 25 25 25 26 27 25 22 24 25 18 27 23 18 16 24 27 32 32 33 31 30 33 33 33 30 27 24 23 19 19 18 16 14 14 16 20 19
14 16 18 20 22 23 24 24 23 23 23 25 26 27 25 24 24 28 28 23 13 23 29 31 30 32 34 34 34 34 34 31 30 28 25 20 19 16 12 11 19 17 18 19 17
16 17 18 20 22 23 24 24 24 24 23 23 23 24 26 22 30 33 31 33 35 42 42 38 36 34 33 36 36 37 32 31 29 25 21 18 10 9 7 12 15 17 18 16 15
16 18 20 21 23 25 26 26 27 27 26 25 27 25 28 29 36 36 36 42 43 44 45 42 39 37 36 36 35 34 30 29 27 28 24 20 10 24 19 13 14 14 13 14 13
16 17 19 22 24 26 28 28 27 28 31 30 31 6 34 37 39 41 40 40 42 42 40 41 37 34 34 33 35 33 29 28 24 33 34 34 9 8 14 18 13 12 12 11 10
22 20 21 23 26 28 30 30 29 30 29 21 21 29 35 35 39 42 40 36 39 39 39 37 39 38 37 36 33 33 30 36 34 34 36 38 28 23 22 16 10 9 9 8 6
28 26 26 26 28 30 32 31 28 31 17 34 32 31 35 33 38 42 39 36 34 34 37 34 35 36 35 33 29 30 36 36 41 34 38 28 27 36 24 15 9 6 8 7 6
34 32 32 33 33 36 36 19 23 37 29 27 31 33 33 37 38 41 36 35 34 32 33 33 31 30 36 40 39 38 37 36 36 42 36 28 18 18 22 16 9 8 9 10 7
42 40 41 40 39 40 36 32 33 31 35 34 36 35 37 40 32 42 37 32 33 32 34 35 31 35 36 37 34 35 36 36 42 44 49 40 28 30 27 14 13 12 10 12 9
49 47 46 45 40 42 36 35 36 34 36 34 34 34 35 37 34 41 41 34 36 35 36 31 33 33 34 35 35 37 41 44 47 46 54 55 40 35 35 21 19 15 12 12 12
53 50 50 46 39 41 38 36 36 36 39 35 34 34 34 36 34 38 42 36 36 34 37 36 36 33 35 36 40 40 42 48 52 60 41 50 44 32 39 39 29 21 20 16 12
55 52 51 47 37 40 39 37 37 37 40 35 33 30 31 35 33 36 39 37 33 38 38 35 31 36 38 40 41 50 43 48 55 60 55 49 51 42 43 42 32 31 24 19 14
59 55 52 47 40 40 38 37 38 36 46 36 33 31 34 35 39 33 35 34 37 39 37 40 38 38 42 42 38 48 51 53 55 50 52 37 43 44 49 43 41 38 27 22 16
62 56 52 43 41 40 39 39 37 39 41 37 35 36 40 34 34 37 34 32 35 38 35 40 37 38 43 39 37 50 53 50 48 45 51 40 44 55 52 45 54 54 33 26 19
65 56 49 45 43 43 41 40 44 40 38 39 40 41 45 43 40 37 38 37 42 54 50 42 42 37 35 45 39 46 60 66 59 56 54 40 51 51 47 46 53 51 42 30 24
65 53 45 43 44 45 40 42 45 42 43 41 44 49 47 43 39 40 44 50 38 42 53 56 61 40 32 39 52 54 49 55 68 70 70 46 54 45 44 48 48 46 41 35 29
63 47 42 44 45 43 45 49 51 49 46 53 54 53 47 42 47 50 47 51 47 31 49 58 57 43 40 42 44 47 48 43 56 51 60 48 46 44 48 45 47 49 43 39 33
58 50 42 45 46 42 48 52 52 46 49 50 58 51 60 56 56 53 54 46 48 37 38 53 68 47 45 41 39 38 44 53 48 66 72 59 71 65 51 55 55 52 49 44 37
51 54 40 46 43 46 56 53 52 45 45 50 56 61 61 66 58 63 58 54 45 43 39 48 53 60 49 50 50 46 48 42 47 46 64 79 68 50 63 55 55 63 57 49 37
53 58 44 47 54 48 57 52 50 51 47 51 54 57 60 62 65 64 63 51 42 41 51 44 59 69 66 51 50 47 48 41 53 53 46 62 80 63 52 49 62 68 62 51 41
63 59 44 44 62 59 54 58 54 56 52 51 56 53 55 62 72 58 57 49 44 46 49 44 55 76 68 59 50 51 47 43 47 53 64 72 69 49 54 62 81 77 60 55 44
57 64 50 48 52 61 64 70 60 48 56 55 62 58 65 70 59 68 65 58 51 50 47 46 59 64 76 74 71 70 62 52 49 64 70 68 81 80 71 82 79 76 71 64 47
52 60 55 64 60 64 65 69 73 79 60 59 67 63 67 77 74 76 71 66 56 49 50 53 76 69 69 68 73 77 71 63 62 62 72 84 79 77 83 80 77 75 79 66 48
61 61 57 69 66 72 70 74 80 80 77 75 70 70 67 71 68 85 75 69 66 52 54 52 71 66 84 71 70 74 65 68 65 66 66 67 76 66 70 74 78 78 74 63 57
49 55 63 68 68 73 75 77 72 71 69 62 64 69 69 67 64 65 65 63 58 60 58 56 58 69 89 74 73 81 71 59 60 54 60 67 62 71 77 75 76 75 70 68 67
Wind_Direction
263 253 248 245 241 234 228 220 215 210 212 218 233 249 256 257 228 225 213 226 233 258 236 169 148 139 135 120 124 130 95 78 83 90 84 104 110 104 122 138 123 120 130 73 30
278 265 255 251 242 232 234 231 226 219 222 227 231 236 243 242 196 242 221 269 263 256 184 156 118 124 112 121 121 116 83 73 93 101 91 97 106 105 103 108 121 119 117 103 89
279 262 252 245 234 225 228 234 232 233 237 238 233 231 236 218 187 234 288 273 256 203 134 124 101 101 88 93 88 73 67 69 74 87 95 93 95 103 97 94 121 116 123 124 118
272 258 251 243 236 233 231 232 236 238 243 242 239 238 231 195 189 281 283 264 216 129 111 97 93 78 67 64 59 57 55 58 57 59 64 75 76 83 112 113 91 105 111 114 122
281 267 253 244 237 230 226 225 225 231 248 258 256 239 233 256 303 295 287 298 42 36 40 55 56 58 55 45 43 40 49 45 46 52 54 52 74 78 92 118 97 88 98 110 105
282 268 259 249 234 223 217 218 220 228 240 251 268 317 274 309 312 302 310 4 0 18 19 27 37 40 42 37 36 34 42 39 36 34 33 33 47 37 51 88 86 94 96 101 97
286 266 256 242 229 221 218 214 215 227 237 249 265 226 324 347 348 331 9 15 10 16 26 24 33 38 36 36 28 30 34 33 35 20 17 15 26 64 51 48 70 76 85 93 77
302 283 268 254 242 234 224 219 219 227 225 206 94 41 335 18 11 358 10 24 22 23 26 32 27 30 27 24 29 32 30 24 20 15 13 13 13 20 32 36 41 53 56 65 81
307 294 286 274 265 253 230 221 208 245 158 7 16 357 349 18 4 360 9 16 27 28 25 32 28 26 30 31 35 34 19 16 10 14 8 15 360 1 8 9 1 10 17 21 28
312 303 297 286 280 276 252 163 22 321 17 31 13 359 2 351 356 5 12 17 23 24 24 25 28 30 26 20 13 11 13 11 9 4 360 352 311 329 343 345 329 330 341 346 349
317 310 306 299 291 298 327 355 352 358 351 346 346 350 351 345 12 358 11 16 19 21 16 17 22 16 19 21 19 13 6 1 1 359 353 354 342 343 345 335 328 316 314 332 336
320 315 312 309 322 327 343 339 340 343 341 347 348 351 355 355 356 355 2 7 6 8 11 16 9 15 15 12 8 4 358 358 359 359 350 347 342 352 359 352 342 334 327 331 342
322 319 317 318 342 348 349 345 348 346 334 341 343 344 351 356 354 353 356 2 1 4 5 1 3 10 6 1 357 356 353 352 348 346 349 347 351 3 2 1 2 357 344 339 335
323 319 319 322 354 351 347 351 353 353 333 341 347 357 0 357 354 358 359 359 3 356 358 358 6 357 355 351 353 348 355 349 345 346 345 352 343 352 357 357 2 357 353 351 349
324 323 326 343 350 347 350 353 353 354 325 342 349 4 357 350 346 359 359 0 351 351 354 349 349 348 345 346 352 346 346 343 342 341 342 348 344 352 350 353 356 353 352 348 346
323 325 329 349 355 352 349 349 351 334 326 338 348 347 344 352 349 348 353 358 356 348 347 341 351 347 344 348 346 343 342 338 343 345 339 347 344 343 348 353 351 352 349 349 347
323 334 344 344 342 345 348 346 328 324 338 334 337 342 337 338 340 344 342 342 340 335 336 340 339 347 349 341 346 346 342 337 337 338 336 347 338 335 345 350 347 349 351 350 345
321 336 345 348 341 339 345 334 321 325 326 336 334 331 331 337 338 339 335 330 336 333 331 331 330 340 350 343 339 339 341 336 330 330 327 336 333 345 346 346 347 352 351 349 343
319 337 341 340 342 344 333 317 316 322 327 325 326 324 329 334 331 330 328 328 333 337 329 328 328 341 341 341 342 340 333 341 328 326 326 332 333 330 341 348 347 347 348 345 341
325 326 330 332 336 340 323 313 316 327 328 328 319 324 320 325 326 327 326 332 329 334 334 329 322 332 335 339 335 330 337 329 330 324 321 325 326 332 343 341 342 343 341 341 338
327 318 331 331 335 324 309 312 317 327 329 323 320 317 318 318 320 319 320 325 328 329 330 328 323 324 331 325 326 326 322 321 323 319 319 322 329 346 338 339 341 340 339 337 338
321 309 328 331 315 316 307 314 322 321 325 321 320 317 316 319 316 316 314 320 329 327 322 324 321 315 316 325 326 323 318 313 315 319 311 317 313 325 337 343 339 335 336 337 334
311 310 324 325 305 306 312 311 315 315 318 318 317 318 321 317 315 315 317 325 322 319 320 324 319 317 320 325 332 323 322 315 308 309 306 310 318 340 334 330 331 332 331 333 330
312 305 313 315 311 306 305 306 309 318 315 315 313 315 313 310 309 311 314 318 318 314 315 317 310 306 305 309 317 315 314 308 306 307 308 300 309 316 321 328 329 332 333 332 330
309 304 308 302 303 305 306 305 304 305 309 313 310 309 309 309 309 305 309 312 313 312 312 310 305 304 301 303 306 304 304 301 298 294 300 306 308 316 323 328 331 331 329 332 332
303 304 306 300 302 301 301 301 301 303 304 305 306 309 311 306 308 308 311 313 311 316 312 312 308 310 306 308 306 302 303 304 301 299 294 299 305 324 328 330 330 332 334 335 335
306 308 302 299 299 300 299 299 302 307 307 306 308 309 309 311 313 312 309 307 303 307 310 309 310 313 307 315 314 309 310 303 306 313 317 311 320 325 325 329 331 332 334 332 331